TimeHST,TemperatureF,Dew PointF,Humidity,Sea Level PressureIn,VisibilityMPH,Wind Direction,Wind SpeedMPH,Gust SpeedMPH,PrecipitationIn,Events,Conditions,WindDirDegrees,DateUTC
12:53 AM,68.0,64.9,90,30.06,10.0,ENE,3.5,-,N/A,,Clear,60,2013-04-21 10:53:00
1:53 AM,66.9,64.9,93,30.05,10.0,Calm,Calm,-,N/A,,Scattered Clouds,0,2013-04-21 11:53:00
2:53 AM,66.9,64.9,93,30.02,10.0,Calm,Calm,-,N/A,,Clear,0,2013-04-21 12:53:00
3:53 AM,66.0,64.9,96,30.02,9.0,Calm,Calm,-,N/A,,Partly Cloudy,0,2013-04-21 13:53:00
4:53 AM,64.9,64.0,97,30.02,10.0,Calm,Calm,-,N/A,,Clear,0,2013-04-21 14:53:00
5:53 AM,64.0,64.0,100,30.04,10.0,Calm,Calm,-,N/A,,Clear,0,2013-04-21 15:53:00
6:53 AM,66.9,66.0,97,30.05,10.0,Calm,Calm,-,N/A,,Scattered Clouds,0,2013-04-21 16:53:00
7:53 AM,72.0,68.0,87,30.07,10.0,Variable,3.5,-,N/A,,Partly Cloudy,0,2013-04-21 17:53:00
8:53 AM,73.9,66.9,79,30.07,10.0,Calm,Calm,-,N/A,,Clear,0,2013-04-21 18:53:00
9:53 AM,77.0,68.0,74,30.09,10.0,SE,3.5,-,N/A,,Clear,140,2013-04-21 19:53:00
10:53 AM,77.0,69.1,76,30.08,9.0,Variable,4.6,-,N/A,,Clear,0,2013-04-21 20:53:00
11:53 AM,78.1,69.1,74,30.07,7.0,South,5.8,-,N/A,,Clear,170,2013-04-21 21:53:00
12:53 PM,79.0,69.1,72,30.04,8.0,SSW,5.8,-,N/A,,Clear,200,2013-04-21 22:53:00
1:53 PM,78.1,68.0,71,30.03,8.0,SW,6.9,-,N/A,,Clear,230,2013-04-21 23:53:00
2:30 PM,71.6,69.8,94,30.00,1.8,SW,11.5,21.9,0.05,Rain,Heavy Rain,220,2013-04-22 00:30:00
2:38 PM,69.8,68.0,94,30.00,1.2,SSW,5.8,-,0.10,Rain,Heavy Rain,210,2013-04-22 00:38:00
2:42 PM,71.6,68.0,88,30.00,2.0,SW,4.6,-,0.10,Rain,Light Rain,230,2013-04-22 00:42:00
2:51 PM,71.6,66.2,83,30.00,7.0,West,5.8,-,0.10,Rain,Light Rain,260,2013-04-22 00:51:00
2:53 PM,71.1,66.9,87,30.02,9.0,West,6.9,-,0.10,Rain,Light Rain,270,2013-04-22 00:53:00
3:53 PM,73.0,70.0,90,30.01,10.0,Calm,Calm,-,0.00,,Mostly Cloudy,0,2013-04-22 01:53:00
4:53 PM,73.0,68.0,84,30.01,10.0,Calm,Calm,-,0.00,Rain,Light Rain,0,2013-04-22 02:53:00
5:53 PM,72.0,69.1,91,30.00,10.0,ESE,3.5,-,0.00,,Partly Cloudy,110,2013-04-22 03:53:00
6:53 PM,71.1,69.1,93,30.02,10.0,Calm,Calm,-,0.00,Rain,Light Rain,0,2013-04-22 04:53:00
7:53 PM,70.0,69.1,97,30.05,10.0,Calm,Calm,-,0.00,,Partly Cloudy,0,2013-04-22 05:53:00
8:53 PM,70.0,70.0,100,30.07,10.0,Calm,Calm,-,N/A,,Mostly Cloudy,0,2013-04-22 06:53:00
9:21 PM,69.8,69.8,100,30.05,10.0,East,3.5,-,0.00,,Mostly Cloudy,90,2013-04-22 07:21:00
9:28 PM,69.8,69.8,100,30.05,10.0,Calm,Calm,-,0.00,,Scattered Clouds,0,2013-04-22 07:28:00
9:53 PM,70.0,69.1,97,30.07,10.0,Calm,Calm,-,0.00,,Scattered Clouds,0,2013-04-22 07:53:00
10:01 PM,69.8,69.8,100,30.05,10.0,Calm,Calm,-,N/A,,Mostly Cloudy,0,2013-04-22 08:01:00
10:13 PM,71.6,69.8,94,30.05,10.0,Calm,Calm,-,N/A,,Mostly Cloudy,0,2013-04-22 08:13:00
10:50 PM,69.8,69.8,100,30.05,2.5,ESE,5.8,-,0.09,Rain,Heavy Rain,120,2013-04-22 08:50:00
10:53 PM,70.0,70.0,100,30.07,1.8,East,5.8,-,0.16,Rain,Heavy Rain,100,2013-04-22 08:53:00
11:02 PM,69.8,69.8,100,30.05,1.5,East,5.8,-,0.13,Rain,Heavy Rain,100,2013-04-22 09:02:00
11:05 PM,69.8,69.8,100,30.05,2.0,East,4.6,-,0.14,Rain,Rain,80,2013-04-22 09:05:00
11:15 PM,69.8,69.8,100,30.05,5.0,ENE,3.5,-,0.16,Rain,Light Rain,70,2013-04-22 09:15:00
11:53 PM,69.1,69.1,100,30.06,8.0,ENE,3.5,-,0.16,,Mostly Cloudy,70,2013-04-22 09:53:00